2017-008X

Last updated on Wed Mar 01 2017 00:15:03 GMT+0000 (Coordinated Universal Time)

1 41969U 17008X 17059.75309623 .00001682 00000-0 77960-4 0 9992 2 41969 97.5097 121.3542 0008324 203.3895 156.6955 15.21463205 1886
UTC large
Height (km)
Speed (km/s)
/
Latitude / Longitude
Inclination (degrees)
Orbital Period (minutes)
Azimuth
Elevation
Range (km)
Doppler Factor

Next 0 passes for location: London (51.5072 / 0.1276)

Sorry there are no passes over London.